Time,TemperatureF,DewpointF,PressureIn,WindDirection,WindDirectionDegrees,WindSpeedMPH,WindSpeedGustMPH,Humidity,HourlyPrecipIn,Conditions,Clouds,dailyrainin,SoftwareType,DateUTC
2013-02-13 00:01:00,35.1,25.6,30.04,SE,135,2.9,4.3,68,0.00,,,0.00,WUHU216HW,2013-02-13 07:01:00,
2013-02-13 00:06:00,34.9,25.7,30.04,SSE,158,5.1,5.1,69,0.00,,,0.00,WUHU216HW,2013-02-13 07:06:00,
2013-02-13 00:11:00,34.9,25.4,30.04,SSE,158,4.0,5.1,68,0.00,,,0.00,WUHU216HW,2013-02-13 07:11:00,
2013-02-13 00:16:00,35.1,25.9,30.03,South,180,8.9,8.9,69,0.00,,,0.00,WUHU216HW,2013-02-13 07:16:00,
2013-02-13 00:21:00,35.5,25.6,30.04,SSE,158,6.9,8.9,67,0.00,,,0.00,WUHU216HW,2013-02-13 07:21:00,
2013-02-13 00:26:00,35.6,25.7,30.03,SSE,158,8.5,8.7,67,0.00,,,0.00,WUHU216HW,2013-02-13 07:26:00,
2013-02-13 00:31:00,35.6,25.7,30.03,South,180,6.7,8.7,67,0.00,,,0.00,WUHU216HW,2013-02-13 07:31:00,
2013-02-13 00:36:00,35.3,25.7,30.03,South,180,5.1,6.9,68,0.00,,,0.00,WUHU216HW,2013-02-13 07:36:00,
2013-02-13 00:41:00,35.1,25.6,30.03,SSE,158,5.4,5.4,68,0.00,,,0.00,WUHU216HW,2013-02-13 07:41:00,
2013-02-13 00:46:00,34.9,25.4,30.02,SSE,158,5.6,6.7,68,0.00,,,0.00,WUHU216HW,2013-02-13 07:46:00,
2013-02-13 00:51:00,34.6,25.4,30.01,South,180,4.7,6.7,69,0.00,,,0.00,WUHU216HW,2013-02-13 07:51:00,
2013-02-13 00:56:00,34.4,25.2,30.01,SSW,203,5.4,5.4,69,0.00,,,0.00,WUHU216HW,2013-02-13 07:56:00,
2013-02-13 01:01:00,34.2,25.0,30.01,SSW,203,3.8,5.4,69,0.00,,,0.00,WUHU216HW,2013-02-13 08:01:00,
2013-02-13 01:06:00,34.0,25.2,30.01,SW,225,8.3,8.3,70,0.00,,,0.00,WUHU216HW,2013-02-13 08:06:00,
2013-02-13 01:11:00,33.8,25.0,30.01,SSW,203,6.3,8.3,70,0.00,,,0.00,WUHU216HW,2013-02-13 08:11:00,
2013-02-13 01:16:00,33.8,25.0,30.01,South,180,7.6,7.6,70,0.00,,,0.00,WUHU216HW,2013-02-13 08:16:00,
2013-02-13 01:21:00,33.7,24.8,30.01,SE,135,4.9,7.6,70,0.00,,,0.00,WUHU216HW,2013-02-13 08:21:00,
2013-02-13 01:26:00,33.5,24.3,30.01,SE,135,2.5,4.9,69,0.00,,,0.00,WUHU216HW,2013-02-13 08:26:00,
2013-02-13 01:31:00,33.3,24.2,30.01,SSE,158,5.1,5.1,69,0.00,,,0.00,WUHU216HW,2013-02-13 08:31:00,
2013-02-13 01:36:00,33.5,24.7,30.02,SSE,158,6.5,6.9,70,0.00,,,0.00,WUHU216HW,2013-02-13 08:36:00,
2013-02-13 01:41:00,33.7,24.8,30.02,SSE,158,7.8,7.8,70,0.00,,,0.00,WUHU216HW,2013-02-13 08:41:00,
2013-02-13 01:46:00,33.8,25.0,30.02,SSE,158,8.1,8.7,70,0.00,,,0.00,WUHU216HW,2013-02-13 08:46:00,
2013-02-13 01:51:00,34.2,25.4,30.02,SSE,158,11.2,11.2,70,0.00,,,0.00,WUHU216HW,2013-02-13 08:51:00,
2013-02-13 01:56:00,34.6,25.7,30.02,SSE,158,9.2,11.2,70,0.00,,,0.00,WUHU216HW,2013-02-13 08:56:00,
2013-02-13 02:01:00,34.7,25.9,30.03,SSE,158,6.7,9.8,70,0.00,,,0.00,WUHU216HW,2013-02-13 09:01:00,
2013-02-13 02:06:00,34.9,26.1,30.02,SSE,158,7.6,9.2,70,0.00,,,0.00,WUHU216HW,2013-02-13 09:06:00,
2013-02-13 02:11:00,35.1,25.9,30.02,SSE,158,6.7,9.6,69,0.00,,,0.00,WUHU216HW,2013-02-13 09:11:00,
2013-02-13 02:16:00,35.3,26.1,30.02,SSE,158,10.7,10.7,69,0.00,,,0.00,WUHU216HW,2013-02-13 09:16:00,
2013-02-13 02:21:00,35.5,25.9,30.02,SSE,158,8.1,11.4,68,0.00,,,0.00,WUHU216HW,2013-02-13 09:21:00,
2013-02-13 02:26:00,35.5,25.9,30.02,SSW,203,4.7,11.4,68,0.00,,,0.00,WUHU216HW,2013-02-13 09:26:00,
2013-02-13 02:31:00,35.3,25.7,30.01,SSE,158,5.1,9.4,68,0.00,,,0.00,WUHU216HW,2013-02-13 09:31:00,
2013-02-13 02:36:00,35.1,25.9,30.01,SW,225,6.9,7.4,69,0.00,,,0.00,WUHU216HW,2013-02-13 09:36:00,
2013-02-13 02:41:00,35.8,25.9,30.01,SSW,203,2.7,7.8,67,0.00,,,0.00,WUHU216HW,2013-02-13 09:41:00,
2013-02-13 02:46:00,36.2,26.3,30.01,SSW,203,3.4,7.8,67,0.00,,,0.00,WUHU216HW,2013-02-13 09:46:00,
2013-02-13 02:51:00,36.4,25.8,30.01,SW,225,3.6,6.0,65,0.00,,,0.00,WUHU216HW,2013-02-13 09:51:00,
2013-02-13 02:56:00,36.4,25.8,30.02,NW,315,0.2,6.0,65,0.00,,,0.00,WUHU216HW,2013-02-13 09:56:00,
2013-02-13 03:01:00,36.4,26.1,30.01,West,270,0.7,2.2,66,0.00,,,0.00,WUHU216HW,2013-02-13 10:01:00,
2013-02-13 03:06:00,36.0,25.8,30.01,ENE,68,3.1,3.1,66,0.00,,,0.00,WUHU216HW,2013-02-13 10:06:00,
2013-02-13 03:11:00,35.8,25.6,30.01,East,90,1.8,3.1,66,0.00,,,0.00,WUHU216HW,2013-02-13 10:11:00,
2013-02-13 03:16:00,35.8,25.6,30.01,SE,135,4.3,4.3,66,0.00,,,0.00,WUHU216HW,2013-02-13 10:16:00,
2013-02-13 03:21:00,35.8,25.6,30.01,SE,135,5.1,5.1,66,0.00,,,0.00,WUHU216HW,2013-02-13 10:21:00,
2013-02-13 03:26:00,36.0,25.8,30.01,SSE,158,5.1,5.4,66,0.00,,,0.00,WUHU216HW,2013-02-13 10:26:00,
2013-02-13 03:31:00,36.4,26.1,30.01,SSE,158,3.4,5.4,66,0.00,,,0.00,WUHU216HW,2013-02-13 10:31:00,
2013-02-13 03:36:00,36.4,26.1,30.01,SSW,203,1.8,4.0,66,0.00,,,0.00,WUHU216HW,2013-02-13 10:36:00,
2013-02-13 03:41:00,36.0,26.1,30.00,SSE,158,5.4,5.4,67,0.00,,,0.00,WUHU216HW,2013-02-13 10:41:00,
2013-02-13 03:46:00,36.2,26.3,30.00,SSW,203,4.3,5.4,67,0.00,,,0.00,WUHU216HW,2013-02-13 10:46:00,
2013-02-13 03:51:00,36.5,26.3,29.99,SSW,203,2.9,5.4,66,0.00,,,0.00,WUHU216HW,2013-02-13 10:51:00,
2013-02-13 03:56:00,36.9,26.2,29.99,SSE,158,4.3,6.3,65,0.00,,,0.00,WUHU216HW,2013-02-13 10:56:00,
2013-02-13 04:01:00,37.1,26.4,29.99,South,180,4.5,6.3,65,0.00,,,0.00,WUHU216HW,2013-02-13 11:01:00,
2013-02-13 04:06:00,37.1,26.4,29.99,SSE,158,7.8,10.1,65,0.00,,,0.00,WUHU216HW,2013-02-13 11:06:00,
2013-02-13 04:11:00,37.1,26.0,29.99,SE,135,8.3,10.1,64,0.00,,,0.00,WUHU216HW,2013-02-13 11:11:00,
2013-02-13 04:16:00,37.1,26.0,29.99,SSE,158,6.9,8.3,64,0.00,,,0.00,WUHU216HW,2013-02-13 11:16:00,
2013-02-13 04:21:00,37.1,26.4,29.99,SSE,158,7.6,7.6,65,0.00,,,0.00,WUHU216HW,2013-02-13 11:21:00,
2013-02-13 04:26:00,37.1,26.4,29.99,SSE,158,6.0,7.6,65,0.00,,,0.00,WUHU216HW,2013-02-13 11:26:00,
2013-02-13 04:31:00,36.9,26.2,29.99,SE,135,7.6,7.8,65,0.00,,,0.00,WUHU216HW,2013-02-13 11:31:00,
2013-02-13 04:36:00,37.1,26.4,29.99,SSW,203,7.8,9.2,65,0.00,,,0.00,WUHU216HW,2013-02-13 11:36:00,
2013-02-13 04:41:00,37.1,26.4,29.99,South,180,6.9,9.2,65,0.00,,,0.00,WUHU216HW,2013-02-13 11:41:00,
2013-02-13 04:46:00,37.1,26.4,29.99,SSW,203,5.4,8.5,65,0.00,,,0.00,WUHU216HW,2013-02-13 11:46:00,
2013-02-13 04:51:00,37.3,26.6,29.99,South,180,6.9,8.5,65,0.00,,,0.00,WUHU216HW,2013-02-13 11:51:00,
2013-02-13 04:56:00,37.4,26.4,29.98,SE,135,9.2,9.2,64,0.00,,,0.00,WUHU216HW,2013-02-13 11:56:00,
2013-02-13 05:01:00,37.3,26.2,29.98,SSE,158,7.6,9.2,64,0.00,,,0.00,WUHU216HW,2013-02-13 12:01:00,
2013-02-13 05:06:00,37.1,26.4,29.98,South,180,4.5,8.1,65,0.00,,,0.00,WUHU216HW,2013-02-13 12:06:00,
2013-02-13 05:11:00,36.9,26.2,29.98,South,180,6.9,6.9,65,0.00,,,0.00,WUHU216HW,2013-02-13 12:11:00,
2013-02-13 05:16:00,37.1,26.4,29.98,SE,135,5.4,6.9,65,0.00,,,0.00,WUHU216HW,2013-02-13 12:16:00,
2013-02-13 05:21:00,37.1,26.4,29.98,SSW,203,2.9,6.5,65,0.00,,,0.00,WUHU216HW,2013-02-13 12:21:00,
2013-02-13 05:26:00,37.1,26.0,29.98,SSW,203,5.4,8.3,64,0.00,,,0.00,WUHU216HW,2013-02-13 12:26:00,
2013-02-13 05:31:00,37.4,25.6,29.97,SW,225,6.0,8.3,62,0.00,,,0.00,WUHU216HW,2013-02-13 12:31:00,
2013-02-13 05:36:00,37.8,26.3,29.97,SSW,203,4.0,9.2,63,0.00,,,0.00,WUHU216HW,2013-02-13 12:36:00,
2013-02-13 05:41:00,37.4,26.0,29.97,South,180,7.6,9.2,63,0.00,,,0.00,WUHU216HW,2013-02-13 12:41:00,
2013-02-13 05:46:00,37.4,26.0,29.97,SSW,203,8.7,8.9,63,0.00,,,0.00,WUHU216HW,2013-02-13 12:46:00,
2013-02-13 05:51:00,38.2,26.7,29.97,SSW,203,9.8,9.8,63,0.00,,,0.00,WUHU216HW,2013-02-13 12:51:00,
2013-02-13 05:56:00,38.7,26.7,29.97,SSW,203,9.4,12.8,62,0.00,,,0.00,WUHU216HW,2013-02-13 12:56:00,
2013-02-13 06:01:00,38.7,26.7,29.97,SW,225,6.9,12.8,62,0.00,,,0.00,WUHU216HW,2013-02-13 13:01:00,
2013-02-13 06:06:00,38.7,26.7,29.97,SSW,203,9.4,11.6,62,0.00,,,0.00,WUHU216HW,2013-02-13 13:06:00,
2013-02-13 06:11:00,38.7,27.1,29.97,SSW,203,8.5,12.3,63,0.00,,,0.00,WUHU216HW,2013-02-13 13:11:00,
2013-02-13 06:16:00,38.5,26.6,29.97,South,180,8.3,12.3,62,0.00,,,0.00,WUHU216HW,2013-02-13 13:16:00,
2013-02-13 06:21:00,38.7,26.7,29.97,SSW,203,7.6,9.6,62,0.00,,,0.00,WUHU216HW,2013-02-13 13:21:00,
2013-02-13 06:26:00,38.5,26.9,29.97,SSE,158,6.9,9.6,63,0.00,,,0.00,WUHU216HW,2013-02-13 13:26:00,
2013-02-13 06:31:00,38.5,26.9,29.97,SSE,158,7.2,9.4,63,0.00,,,0.00,WUHU216HW,2013-02-13 13:31:00,
2013-02-13 06:36:00,38.5,26.9,29.97,South,180,7.2,8.5,63,0.00,,,0.00,WUHU216HW,2013-02-13 13:36:00,
2013-02-13 06:41:00,38.5,26.6,29.97,SSE,158,2.5,7.6,62,0.00,,,0.00,WUHU216HW,2013-02-13 13:41:00,
2013-02-13 06:46:00,38.5,26.9,29.97,SE,135,3.4,6.7,63,0.00,,,0.00,WUHU216HW,2013-02-13 13:46:00,
2013-02-13 06:51:00,38.5,26.6,29.97,SSE,158,4.0,5.1,62,0.00,,,0.00,WUHU216HW,2013-02-13 13:51:00,
2013-02-13 06:57:00,38.3,26.4,29.97,SE,135,4.0,5.8,62,0.00,,,0.00,WUHU216HW,2013-02-13 13:57:00,
2013-02-13 07:02:00,38.3,26.8,29.97,SE,135,4.7,5.8,63,0.00,,,0.00,WUHU216HW,2013-02-13 14:02:00,
2013-02-13 07:07:00,38.2,26.7,29.97,SE,135,8.3,8.3,63,0.00,,,0.00,WUHU216HW,2013-02-13 14:07:00,
2013-02-13 07:12:00,38.3,26.8,29.97,SSE,158,5.4,8.3,63,0.00,,,0.00,WUHU216HW,2013-02-13 14:12:00,
2013-02-13 07:17:00,38.3,26.8,29.97,SE,135,6.0,7.6,63,0.00,,,0.00,WUHU216HW,2013-02-13 14:17:00,
2013-02-13 07:22:00,38.2,26.7,29.96,SSE,158,7.6,7.6,63,0.00,,,0.00,WUHU216HW,2013-02-13 14:22:00,
2013-02-13 07:27:00,38.2,26.7,29.96,SE,135,7.8,7.8,63,0.00,,,0.00,WUHU216HW,2013-02-13 14:27:00,
2013-02-13 07:32:00,38.0,26.5,29.96,ESE,113,5.6,7.8,63,0.00,,,0.00,WUHU216HW,2013-02-13 14:32:00,
2013-02-13 07:37:00,38.2,26.7,29.96,SSE,158,5.4,6.9,63,0.00,,,0.00,WUHU216HW,2013-02-13 14:37:00,
2013-02-13 07:42:00,38.0,26.5,29.96,South,180,4.3,6.9,63,0.00,,,0.00,WUHU216HW,2013-02-13 14:42:00,
2013-02-13 07:48:00,37.8,26.3,29.96,SSE,158,2.9,7.2,63,0.00,,,0.00,WUHU216HW,2013-02-13 14:48:00,
2013-02-13 07:53:00,37.6,26.1,29.96,SSW,203,2.0,6.0,63,0.00,,,0.00,WUHU216HW,2013-02-13 14:53:00,
2013-02-13 07:58:00,37.6,26.1,29.97,SSE,158,2.2,6.3,63,0.00,,,0.00,WUHU216HW,2013-02-13 14:58:00,
2013-02-13 08:03:00,37.4,26.4,29.97,SSW,203,6.3,6.3,64,0.00,,,0.00,WUHU216HW,2013-02-13 15:03:00,
2013-02-13 08:08:00,37.3,26.2,29.96,SSW,203,5.4,6.3,64,0.00,,,0.00,WUHU216HW,2013-02-13 15:08:00,
2013-02-13 08:13:00,37.3,26.6,29.97,South,180,5.4,6.0,65,0.00,,,0.00,WUHU216HW,2013-02-13 15:13:00,
2013-02-13 08:18:00,37.6,26.9,29.97,SSW,203,5.4,8.5,65,0.00,,,0.00,WUHU216HW,2013-02-13 15:18:00,
2013-02-13 08:23:00,37.8,27.1,29.97,South,180,0.9,8.5,65,0.00,,,0.00,WUHU216HW,2013-02-13 15:23:00,
2013-02-13 08:28:00,37.8,26.6,29.97,ESE,113,1.1,6.9,64,0.00,,,0.00,WUHU216HW,2013-02-13 15:28:00,
2013-02-13 08:33:00,37.8,26.6,29.98,ESE,113,0.4,3.6,64,0.00,,,0.00,WUHU216HW,2013-02-13 15:33:00,
2013-02-13 08:38:00,38.0,26.8,29.98,ESE,113,1.3,1.3,64,0.00,,,0.00,WUHU216HW,2013-02-13 15:38:00,
2013-02-13 08:43:00,38.0,26.8,29.98,SW,225,0.7,1.8,64,0.00,,,0.00,WUHU216HW,2013-02-13 15:43:00,
2013-02-13 08:48:00,38.0,26.8,29.97,SE,135,2.0,2.0,64,0.00,,,0.00,WUHU216HW,2013-02-13 15:48:00,
2013-02-13 08:53:00,37.8,26.6,29.97,SSE,158,1.6,2.5,64,0.00,,,0.00,WUHU216HW,2013-02-13 15:53:00,
2013-02-13 08:59:00,37.8,27.1,29.97,South,180,2.5,4.3,65,0.00,,,0.00,WUHU216HW,2013-02-13 15:59:00,
2013-02-13 09:04:00,37.8,27.1,29.97,South,180,1.6,4.3,65,0.00,,,0.00,WUHU216HW,2013-02-13 16:04:00,
2013-02-13 09:09:00,37.8,27.1,29.97,SSE,158,0.4,2.9,65,0.00,,,0.00,WUHU216HW,2013-02-13 16:09:00,
2013-02-13 09:14:00,37.8,27.5,29.98,South,180,2.0,2.2,66,0.00,,,0.00,WUHU216HW,2013-02-13 16:14:00,
2013-02-13 09:19:00,37.6,27.3,29.98,SE,135,0.0,2.2,66,0.00,,,0.00,WUHU216HW,2013-02-13 16:19:00,
2013-02-13 09:24:00,37.8,27.5,29.98,ESE,113,1.1,2.0,66,0.00,,,0.00,WUHU216HW,2013-02-13 16:24:00,
2013-02-13 09:29:00,37.8,27.1,29.99,ESE,113,1.1,1.6,65,0.00,,,0.00,WUHU216HW,2013-02-13 16:29:00,
2013-02-13 09:34:00,38.0,27.2,29.98,SE,135,2.9,2.9,65,0.00,,,0.00,WUHU216HW,2013-02-13 16:34:00,
2013-02-13 09:39:00,38.2,27.4,29.98,SSE,158,3.4,3.4,65,0.00,,,0.00,WUHU216HW,2013-02-13 16:39:00,
2013-02-13 09:44:00,38.3,27.5,29.98,South,180,2.9,3.4,65,0.00,,,0.00,WUHU216HW,2013-02-13 16:44:00,
2013-02-13 09:49:00,38.5,27.4,29.98,South,180,3.1,3.4,64,0.00,,,0.00,WUHU216HW,2013-02-13 16:49:00,
2013-02-13 09:54:00,38.7,27.9,29.98,SSE,158,2.2,3.4,65,0.00,,,0.00,WUHU216HW,2013-02-13 16:54:00,
2013-02-13 09:59:00,38.9,28.0,29.98,South,180,2.0,2.5,65,0.00,,,0.00,WUHU216HW,2013-02-13 16:59:00,
2013-02-13 10:04:00,38.9,27.6,29.98,South,180,4.0,4.0,64,0.00,,,0.00,WUHU216HW,2013-02-13 17:04:00,
2013-02-13 10:09:00,39.1,27.8,29.98,South,180,2.0,4.0,64,0.00,,,0.00,WUHU216HW,2013-02-13 17:09:00,
2013-02-13 10:14:00,39.1,27.8,29.98,SSW,203,2.5,3.1,64,0.00,,,0.00,WUHU216HW,2013-02-13 17:14:00,
2013-02-13 10:19:00,39.2,27.6,29.98,SSW,203,3.6,4.5,63,0.00,,,0.00,WUHU216HW,2013-02-13 17:19:00,
2013-02-13 10:24:00,39.4,28.2,29.98,SSE,158,2.7,4.5,64,0.00,,,0.00,WUHU216HW,2013-02-13 17:24:00,
2013-02-13 10:29:00,39.8,28.5,29.98,SSW,203,2.9,5.1,64,0.00,,,0.00,WUHU216HW,2013-02-13 17:29:00,
2013-02-13 10:34:00,40.1,28.1,29.98,SSW,203,6.3,10.1,62,0.00,,,0.00,WUHU216HW,2013-02-13 17:34:00,
2013-02-13 10:39:00,40.7,28.3,29.98,SW,225,3.8,10.1,61,0.00,,,0.00,WUHU216HW,2013-02-13 17:39:00,
2013-02-13 10:44:00,40.9,28.1,29.98,SW,225,2.5,6.9,60,0.00,,,0.00,WUHU216HW,2013-02-13 17:44:00,
2013-02-13 10:49:00,41.0,28.3,29.98,SW,225,3.4,6.0,60,0.00,,,0.00,WUHU216HW,2013-02-13 17:49:00,
2013-02-13 10:54:00,41.2,28.5,29.98,SSW,203,3.4,5.4,60,0.00,,,0.00,WUHU216HW,2013-02-13 17:54:00,
2013-02-13 10:59:00,41.4,28.6,29.98,SW,225,3.4,3.4,60,0.00,,,0.00,WUHU216HW,2013-02-13 17:59:00,
2013-02-13 11:04:00,41.4,28.6,29.98,SW,225,2.0,3.8,60,0.00,,,0.00,WUHU216HW,2013-02-13 18:04:00,
2013-02-13 11:09:00,41.8,28.9,29.99,SW,225,3.1,4.3,60,0.00,,,0.00,WUHU216HW,2013-02-13 18:09:00,
2013-02-13 11:15:00,42.1,27.9,29.99,WSW,248,4.0,4.7,57,0.00,,,0.00,WUHU216HW,2013-02-13 18:15:00,
2013-02-13 11:20:00,42.5,28.3,29.99,SW,225,1.1,4.7,57,0.00,,,0.00,WUHU216HW,2013-02-13 18:20:00,
2013-02-13 11:25:00,42.7,28.9,29.99,WSW,248,1.1,4.5,58,0.00,,,0.00,WUHU216HW,2013-02-13 18:25:00,
2013-02-13 11:30:00,42.8,28.6,29.99,WSW,248,1.1,2.9,57,0.00,,,0.00,WUHU216HW,2013-02-13 18:30:00,
2013-02-13 11:34:00,42.8,28.2,30.00,WNW,293,1.8,2.9,56,0.00,,,0.00,WUHU216HW,2013-02-13 18:34:00,
2013-02-13 11:39:00,42.7,27.5,30.00,WSW,248,5.1,5.1,55,0.00,,,0.00,WUHU216HW,2013-02-13 18:39:00,
2013-02-13 11:44:00,42.8,25.0,30.00,WSW,248,10.3,10.3,49,0.00,,,0.00,WUHU216HW,2013-02-13 18:44:00,
2013-02-13 11:49:00,43.6,23.5,30.00,West,270,10.7,14.1,45,0.00,,,0.00,WUHU216HW,2013-02-13 18:49:00,
2013-02-13 11:54:00,43.6,23.0,30.00,West,270,6.9,14.1,44,0.00,,,0.00,WUHU216HW,2013-02-13 18:54:00,
2013-02-13 11:59:00,43.7,22.6,30.00,WNW,293,13.4,13.4,43,0.00,,,0.00,WUHU216HW,2013-02-13 18:59:00,
2013-02-13 12:04:00,43.6,22.4,30.00,West,270,13.4,16.1,43,0.00,,,0.00,WUHU216HW,2013-02-13 19:04:00,
2013-02-13 12:09:00,43.9,22.2,30.00,WNW,293,15.4,17.0,42,0.00,,,0.00,WUHU216HW,2013-02-13 19:09:00,
2013-02-13 12:14:00,44.3,21.4,30.00,West,270,11.0,17.0,40,0.00,,,0.00,WUHU216HW,2013-02-13 19:14:00,
2013-02-13 12:19:00,44.6,22.3,30.00,West,270,14.8,14.8,41,0.00,,,0.00,WUHU216HW,2013-02-13 19:19:00,
2013-02-13 12:24:00,45.0,22.2,29.99,West,270,10.5,14.8,40,0.00,,,0.00,WUHU216HW,2013-02-13 19:24:00,
2013-02-13 12:29:00,45.0,21.4,29.99,West,270,12.1,18.3,39,0.00,,,0.00,WUHU216HW,2013-02-13 19:29:00,
2013-02-13 12:34:00,45.4,23.5,29.99,West,270,5.4,18.3,42,0.00,,,0.00,WUHU216HW,2013-02-13 19:34:00,
2013-02-13 12:39:00,45.0,22.2,30.00,WNW,293,13.9,15.0,40,0.00,,,0.00,WUHU216HW,2013-02-13 19:39:00,
2013-02-13 12:44:00,44.6,21.2,29.99,West,270,18.6,18.6,39,0.00,,,0.00,WUHU216HW,2013-02-13 19:44:00,
2013-02-13 12:49:00,44.3,21.4,29.99,WNW,293,15.7,19.5,40,0.00,,,0.00,WUHU216HW,2013-02-13 19:49:00,
2013-02-13 12:54:00,44.3,20.8,29.99,WNW,293,16.3,19.5,39,0.00,,,0.00,WUHU216HW,2013-02-13 19:54:00,
2013-02-13 12:59:00,44.3,20.2,29.99,WNW,293,13.6,19.0,38,0.00,,,0.00,WUHU216HW,2013-02-13 19:59:00,
2013-02-13 13:04:00,44.3,20.8,29.99,WNW,293,14.3,17.4,39,0.00,,,0.00,WUHU216HW,2013-02-13 20:04:00,
2013-02-13 13:09:00,44.6,20.4,29.99,West,270,14.1,17.0,38,0.00,,,0.00,WUHU216HW,2013-02-13 20:09:00,
2013-02-13 13:14:00,44.6,20.4,29.99,West,270,19.0,19.0,38,0.00,,,0.00,WUHU216HW,2013-02-13 20:14:00,
2013-02-13 13:19:00,45.0,20.1,29.99,West,270,13.0,19.0,37,0.00,,,0.00,WUHU216HW,2013-02-13 20:19:00,
2013-02-13 13:24:00,45.0,18.8,29.98,West,270,13.2,21.7,35,0.00,,,0.00,WUHU216HW,2013-02-13 20:24:00,
2013-02-13 13:29:00,45.2,20.3,29.99,West,270,15.0,21.7,37,0.00,,,0.00,WUHU216HW,2013-02-13 20:29:00,
2013-02-13 13:34:00,45.0,20.8,29.98,West,270,15.4,20.4,38,0.00,,,0.00,WUHU216HW,2013-02-13 20:34:00,
2013-02-13 13:39:00,45.4,19.8,29.99,WNW,293,21.3,21.5,36,0.00,,,0.00,WUHU216HW,2013-02-13 20:39:00,
2013-02-13 13:44:00,45.0,20.1,29.99,West,270,21.3,21.5,37,0.00,,,0.00,WUHU216HW,2013-02-13 20:44:00,
2013-02-13 13:49:00,44.8,22.0,29.99,West,270,19.0,21.3,40,0.00,,,0.00,WUHU216HW,2013-02-13 20:49:00,
2013-02-13 13:54:00,44.8,21.2,29.99,West,270,22.4,22.4,39,0.00,,,0.00,WUHU216HW,2013-02-13 20:54:00,
2013-02-13 13:59:00,44.3,20.8,29.99,West,270,19.0,22.4,39,0.00,,,0.00,WUHU216HW,2013-02-13 20:59:00,
2013-02-13 14:04:00,44.3,20.2,29.99,WSW,248,17.0,22.1,38,0.00,,,0.00,WUHU216HW,2013-02-13 21:04:00,
2013-02-13 14:09:00,44.5,20.3,29.99,West,270,11.6,22.1,38,0.00,,,0.00,WUHU216HW,2013-02-13 21:09:00,
2013-02-13 14:14:00,44.5,19.6,29.99,West,270,19.2,20.8,37,0.00,,,0.00,WUHU216HW,2013-02-13 21:14:00,
2013-02-13 14:19:00,44.6,19.1,29.99,West,270,25.3,25.3,36,0.00,,,0.00,WUHU216HW,2013-02-13 21:19:00,
2013-02-13 14:24:00,44.6,19.1,29.99,West,270,20.8,25.3,36,0.00,,,0.00,WUHU216HW,2013-02-13 21:24:00,
2013-02-13 14:29:00,44.8,18.6,29.99,West,270,22.1,22.1,35,0.00,,,0.00,WUHU216HW,2013-02-13 21:29:00,
2013-02-13 14:34:00,44.6,19.8,29.99,West,270,15.7,22.1,37,0.00,,,0.00,WUHU216HW,2013-02-13 21:34:00,
2013-02-13 14:39:00,44.5,18.3,29.99,WNW,293,15.2,18.1,35,0.00,,,0.00,WUHU216HW,2013-02-13 21:39:00,
2013-02-13 14:44:00,44.3,19.4,29.99,WNW,293,11.2,16.3,37,0.00,,,0.00,WUHU216HW,2013-02-13 21:44:00,
2013-02-13 14:49:00,44.3,20.8,29.99,West,270,17.7,17.7,39,0.00,,,0.00,WUHU216HW,2013-02-13 21:49:00,
2013-02-13 14:54:00,44.1,19.3,29.99,West,270,11.9,20.8,37,0.00,,,0.00,WUHU216HW,2013-02-13 21:54:00,
2013-02-13 15:00:00,44.3,20.2,29.99,WNW,293,12.1,20.8,38,0.00,,,0.00,WUHU216HW,2013-02-13 22:00:00,
2013-02-13 15:05:00,44.1,20.6,29.99,West,270,15.0,15.0,39,0.00,,,0.00,WUHU216HW,2013-02-13 22:05:00,
2013-02-13 15:10:00,43.7,21.0,29.99,WNW,293,12.8,18.6,40,0.00,,,0.00,WUHU216HW,2013-02-13 22:10:00,
2013-02-13 15:15:00,43.4,20.0,29.99,West,270,16.1,18.6,39,0.00,,,0.00,WUHU216HW,2013-02-13 22:15:00,
2013-02-13 15:20:00,43.4,19.4,29.99,West,270,12.1,16.1,38,0.00,,,0.00,WUHU216HW,2013-02-13 22:20:00,
2013-02-13 15:25:00,43.4,21.2,30.00,WSW,248,12.8,16.1,41,0.00,,,0.00,WUHU216HW,2013-02-13 22:25:00,
2013-02-13 15:30:00,43.2,21.6,30.00,West,270,10.3,17.9,42,0.00,,,0.00,WUHU216HW,2013-02-13 22:30:00,
2013-02-13 15:35:00,43.0,22.0,30.00,West,270,10.5,17.9,43,0.00,,,0.00,WUHU216HW,2013-02-13 22:35:00,
2013-02-13 15:40:00,43.0,22.0,29.99,WNW,293,8.5,12.5,43,0.00,,,0.00,WUHU216HW,2013-02-13 22:40:00,
2013-02-13 15:45:00,43.0,22.0,30.00,West,270,7.6,11.4,43,0.00,,,0.00,WUHU216HW,2013-02-13 22:45:00,
2013-02-13 15:50:00,43.2,21.1,29.99,WSW,248,7.6,11.4,41,0.00,,,0.00,WUHU216HW,2013-02-13 22:50:00,
2013-02-13 15:55:00,43.2,23.2,30.00,West,270,5.6,10.5,45,0.00,,,0.00,WUHU216HW,2013-02-13 22:55:00,
2013-02-13 16:00:00,42.8,21.8,30.00,WNW,293,6.9,8.9,43,0.00,,,0.00,WUHU216HW,2013-02-13 23:00:00,
2013-02-13 16:05:00,42.5,20.9,30.00,WNW,293,10.7,13.2,42,0.00,,,0.00,WUHU216HW,2013-02-13 23:05:00,
2013-02-13 16:10:00,42.7,21.6,30.00,WNW,293,7.8,14.3,43,0.00,,,0.00,WUHU216HW,2013-02-13 23:10:00,
2013-02-13 16:15:00,42.5,22.0,30.00,West,270,6.9,14.3,44,0.00,,,0.00,WUHU216HW,2013-02-13 23:15:00,
2013-02-13 16:20:00,42.1,22.1,29.99,WNW,293,5.1,9.2,45,0.00,,,0.00,WUHU216HW,2013-02-13 23:20:00,
2013-02-13 16:25:00,41.9,22.0,29.99,West,270,7.2,7.2,45,0.00,,,0.00,WUHU216HW,2013-02-13 23:25:00,
2013-02-13 16:30:00,41.8,21.9,30.00,WNW,293,7.6,9.2,45,0.00,,,0.00,WUHU216HW,2013-02-13 23:30:00,
2013-02-13 16:35:00,41.6,22.2,30.00,NW,315,6.3,9.2,46,0.00,,,0.00,WUHU216HW,2013-02-13 23:35:00,
2013-02-13 16:40:00,41.4,22.1,30.00,WNW,293,7.8,9.4,46,0.00,,,0.00,WUHU216HW,2013-02-13 23:40:00,
2013-02-13 16:45:00,41.4,22.1,30.01,West,270,12.5,14.1,46,0.00,,,0.00,WUHU216HW,2013-02-13 23:45:00,
2013-02-13 16:50:00,41.6,22.2,30.01,WNW,293,6.9,14.1,46,0.00,,,0.00,WUHU216HW,2013-02-13 23:50:00,
2013-02-13 16:55:00,41.4,22.5,30.01,NW,315,8.7,11.9,47,0.00,,,0.00,WUHU216HW,2013-02-13 23:55:00,
2013-02-13 17:00:00,41.4,22.5,30.01,WNW,293,8.3,12.1,47,0.00,,,0.00,WUHU216HW,2013-02-14 00:00:00,
2013-02-13 17:05:00,40.7,23.4,30.01,NNW,338,6.9,12.1,50,0.00,,,0.00,WUHU216HW,2013-02-14 00:05:00,
2013-02-13 17:10:00,40.0,22.2,30.01,NNW,338,6.0,8.5,49,0.00,,,0.00,WUHU216HW,2013-02-14 00:10:00,
2013-02-13 17:15:00,40.1,23.0,30.01,NNW,338,5.4,6.9,50,0.00,,,0.00,WUHU216HW,2013-02-14 00:15:00,
2013-02-13 17:20:00,40.0,22.8,30.01,NNW,338,4.7,6.5,50,0.00,,,0.00,WUHU216HW,2013-02-14 00:20:00,
2013-02-13 17:25:00,39.8,24.0,30.01,North,0,6.9,8.7,53,0.00,,,0.00,WUHU216HW,2013-02-14 00:25:00,
2013-02-13 17:30:00,39.2,23.1,30.01,NNW,338,4.0,8.7,52,0.00,,,0.00,WUHU216HW,2013-02-14 00:30:00,
2013-02-13 17:35:00,39.1,23.3,30.01,NNW,338,4.3,5.4,53,0.00,,,0.00,WUHU216HW,2013-02-14 00:35:00,
2013-02-13 17:40:00,38.5,22.8,30.01,NNW,338,4.0,4.5,53,0.00,,,0.00,WUHU216HW,2013-02-14 00:40:00,
2013-02-13 17:45:00,38.7,23.0,30.01,North,0,4.5,4.7,53,0.00,,,0.00,WUHU216HW,2013-02-14 00:45:00,
2013-02-13 17:50:00,38.7,24.7,30.02,North,0,2.5,4.9,57,0.00,,,0.00,WUHU216HW,2013-02-14 00:50:00,
2013-02-13 17:55:00,38.3,24.8,30.02,NNW,338,1.8,4.9,58,0.00,,,0.00,WUHU216HW,2013-02-14 00:55:00,
2013-02-13 18:00:00,38.2,25.0,30.02,North,0,4.3,6.3,59,0.00,,,0.00,WUHU216HW,2013-02-14 01:00:00,
2013-02-13 18:05:00,38.0,24.5,30.02,North,0,2.5,6.3,58,0.00,,,0.00,WUHU216HW,2013-02-14 01:05:00,
2013-02-13 18:10:00,38.0,24.9,30.02,NNW,338,0.7,3.8,59,0.00,,,0.00,WUHU216HW,2013-02-14 01:10:00,
2013-02-13 18:15:00,37.8,24.8,30.02,North,0,2.2,3.8,59,0.00,,,0.00,WUHU216HW,2013-02-14 01:15:00,
2013-02-13 18:20:00,37.6,24.6,30.03,NNW,338,0.4,2.5,59,0.00,,,0.00,WUHU216HW,2013-02-14 01:20:00,
2013-02-13 18:25:00,37.3,24.2,30.03,North,0,0.7,1.1,59,0.00,,,0.00,WUHU216HW,2013-02-14 01:25:00,
2013-02-13 18:30:00,37.1,24.5,30.03,NE,45,1.1,1.1,60,0.00,,,0.00,WUHU216HW,2013-02-14 01:30:00,
2013-02-13 18:35:00,36.7,24.9,30.03,North,0,3.4,4.3,62,0.00,,,0.00,WUHU216HW,2013-02-14 01:35:00,
2013-02-13 18:40:00,36.9,25.1,30.03,NNW,338,5.8,5.8,62,0.00,,,0.00,WUHU216HW,2013-02-14 01:40:00,
2013-02-13 18:45:00,37.1,25.3,30.03,North,0,5.4,6.9,62,0.00,,,0.00,WUHU216HW,2013-02-14 01:45:00,
2013-02-13 18:50:00,37.1,25.7,30.03,North,0,4.3,6.9,63,0.00,,,0.00,WUHU216HW,2013-02-14 01:50:00,
2013-02-13 18:55:00,36.7,25.7,30.04,North,0,5.1,6.9,64,0.00,,,0.00,WUHU216HW,2013-02-14 01:55:00,
2013-02-13 19:00:00,36.5,25.9,30.04,North,0,7.6,7.6,65,0.00,,,0.00,WUHU216HW,2013-02-14 02:00:00,
2013-02-13 19:05:00,36.4,25.8,30.04,North,0,6.9,7.6,65,0.00,,,0.00,WUHU216HW,2013-02-14 02:05:00,
2013-02-13 19:10:00,36.4,25.8,30.04,North,0,5.6,7.6,65,0.00,,,0.00,WUHU216HW,2013-02-14 02:10:00,
2013-02-13 19:15:00,36.2,25.9,30.05,North,0,6.9,6.9,66,0.00,,,0.00,WUHU216HW,2013-02-14 02:15:00,
2013-02-13 19:20:00,36.0,25.8,30.05,NNW,338,1.6,6.9,66,0.00,,,0.00,WUHU216HW,2013-02-14 02:20:00,
2013-02-13 19:25:00,35.8,25.9,30.05,NNW,338,0.4,3.4,67,0.00,,,0.00,WUHU216HW,2013-02-14 02:25:00,
2013-02-13 19:30:00,35.6,26.1,30.05,North,0,1.8,2.7,68,0.00,,,0.00,WUHU216HW,2013-02-14 02:30:00,
2013-02-13 19:35:00,35.3,25.7,30.05,North,0,1.1,2.7,68,0.00,,,0.00,WUHU216HW,2013-02-14 02:35:00,
2013-02-13 19:40:00,35.3,25.4,30.06,NW,315,1.1,2.0,67,0.00,,,0.00,WUHU216HW,2013-02-14 02:40:00,
2013-02-13 19:45:00,35.1,25.2,30.06,NW,315,0.0,1.8,67,0.00,,,0.00,WUHU216HW,2013-02-14 02:45:00,
2013-02-13 19:50:00,34.9,25.0,30.06,NW,315,2.2,2.2,67,0.00,,,0.00,WUHU216HW,2013-02-14 02:50:00,
2013-02-13 19:55:00,35.1,25.6,30.07,North,0,0.4,2.9,68,0.00,,,0.00,WUHU216HW,2013-02-14 02:55:00,
2013-02-13 20:00:00,35.1,25.6,30.06,NNE,23,3.8,3.8,68,0.00,,,0.00,WUHU216HW,2013-02-14 03:00:00,
2013-02-13 20:05:00,34.9,25.0,30.06,NE,45,1.6,3.8,67,0.00,,,0.00,WUHU216HW,2013-02-14 03:05:00,
2013-02-13 20:10:00,34.9,25.4,30.07,North,0,3.4,4.0,68,0.00,,,0.00,WUHU216HW,2013-02-14 03:10:00,
2013-02-13 20:15:00,34.7,25.2,30.06,NNE,23,2.0,4.0,68,0.00,,,0.00,WUHU216HW,2013-02-14 03:15:00,
2013-02-13 20:20:00,34.6,24.7,30.07,North,0,0.9,3.4,67,0.00,,,0.00,WUHU216HW,2013-02-14 03:20:00,
2013-02-13 20:25:00,34.7,24.8,30.07,North,0,0.4,2.5,67,0.00,,,0.00,WUHU216HW,2013-02-14 03:25:00,
2013-02-13 20:30:00,34.7,24.8,30.07,NNW,338,0.4,1.3,67,0.00,,,0.00,WUHU216HW,2013-02-14 03:30:00,
2013-02-13 20:35:00,34.7,24.5,30.07,WSW,248,1.3,1.6,66,0.00,,,0.00,WUHU216HW,2013-02-14 03:35:00,
2013-02-13 20:40:00,34.6,24.7,30.06,West,270,0.0,1.6,67,0.00,,,0.00,WUHU216HW,2013-02-14 03:40:00,
2013-02-13 20:45:00,34.2,24.3,30.07,North,0,1.1,1.1,67,0.00,,,0.00,WUHU216HW,2013-02-14 03:45:00,
2013-02-13 20:50:00,34.2,24.3,30.07,NNE,23,1.3,1.3,67,0.00,,,0.00,WUHU216HW,2013-02-14 03:50:00,
2013-02-13 20:55:00,34.0,24.5,30.06,NNE,23,0.2,1.3,68,0.00,,,0.00,WUHU216HW,2013-02-14 03:55:00,
2013-02-13 21:00:00,34.0,24.8,30.06,NNE,23,1.8,2.2,69,0.00,,,0.00,WUHU216HW,2013-02-14 04:00:00,
2013-02-13 21:05:00,34.2,25.0,30.07,North,0,2.5,2.9,69,0.00,,,0.00,WUHU216HW,2013-02-14 04:05:00,
2013-02-13 21:10:00,34.2,25.4,30.07,North,0,2.2,3.4,70,0.00,,,0.00,WUHU216HW,2013-02-14 04:10:00,
2013-02-13 21:15:00,34.2,24.7,30.07,North,0,0.0,3.4,68,0.00,,,0.00,WUHU216HW,2013-02-14 04:15:00,
2013-02-13 21:20:00,34.4,24.8,30.07,West,270,1.3,1.3,68,0.00,,,0.00,WUHU216HW,2013-02-14 04:20:00,
2013-02-13 21:25:00,34.2,24.7,30.07,East,90,2.5,2.5,68,0.00,,,0.00,WUHU216HW,2013-02-14 04:25:00,
2013-02-13 21:30:00,33.8,24.3,30.07,NE,45,0.4,2.5,68,0.00,,,0.00,WUHU216HW,2013-02-14 04:30:00,
2013-02-13 21:35:00,33.7,24.1,30.07,WSW,248,2.0,2.2,68,0.00,,,0.00,WUHU216HW,2013-02-14 04:35:00,
2013-02-13 21:40:00,33.7,24.5,30.07,ESE,113,1.3,2.0,69,0.00,,,0.00,WUHU216HW,2013-02-14 04:40:00,
2013-02-13 21:45:00,33.5,24.3,30.07,ENE,68,2.5,2.5,69,0.00,,,0.00,WUHU216HW,2013-02-14 04:45:00,
2013-02-13 21:50:00,33.1,24.4,30.07,North,0,1.3,2.5,70,0.00,,,0.00,WUHU216HW,2013-02-14 04:50:00,
2013-02-13 21:55:00,32.9,24.2,30.07,NE,45,1.1,2.0,70,0.00,,,0.00,WUHU216HW,2013-02-14 04:55:00,
2013-02-13 22:00:00,32.9,24.2,30.08,SW,225,2.0,3.4,70,0.00,,,0.00,WUHU216HW,2013-02-14 05:00:00,
2013-02-13 22:05:00,32.9,24.6,30.08,SW,225,0.0,3.4,71,0.00,,,0.00,WUHU216HW,2013-02-14 05:05:00,
2013-02-13 22:10:00,32.8,24.0,30.08,SW,225,0.0,2.5,70,0.00,,,0.00,WUHU216HW,2013-02-14 05:10:00,
2013-02-13 22:15:00,32.8,24.7,30.08,North,0,1.3,1.3,72,0.00,,,0.00,WUHU216HW,2013-02-14 05:15:00,
2013-02-13 22:20:00,32.6,24.6,30.08,ENE,68,0.9,2.0,72,0.00,,,0.00,WUHU216HW,2013-02-14 05:20:00,
2013-02-13 22:25:00,32.6,24.2,30.08,ENE,68,1.6,2.5,71,0.00,,,0.00,WUHU216HW,2013-02-14 05:25:00,
2013-02-13 22:30:00,32.4,24.0,30.08,East,90,1.8,4.3,71,0.00,,,0.00,WUHU216HW,2013-02-14 05:30:00,
2013-02-13 22:35:00,32.8,24.4,30.09,NNE,23,1.1,4.3,71,0.00,,,0.00,WUHU216HW,2013-02-14 05:35:00,
2013-02-13 22:40:00,32.9,24.6,30.09,NNE,23,1.8,1.8,71,0.00,,,0.00,WUHU216HW,2013-02-14 05:40:00,
2013-02-13 22:45:00,33.1,24.4,30.09,NNE,23,1.1,3.1,70,0.00,,,0.00,WUHU216HW,2013-02-14 05:45:00,
2013-02-13 22:50:00,33.1,24.4,30.09,NNE,23,1.1,3.6,70,0.00,,,0.00,WUHU216HW,2013-02-14 05:50:00,
2013-02-13 22:55:00,33.5,24.3,30.09,NNW,338,0.9,4.0,69,0.00,,,0.00,WUHU216HW,2013-02-14 05:55:00,
2013-02-13 23:00:00,34.2,24.3,30.10,North,0,1.8,4.0,67,0.00,,,0.00,WUHU216HW,2013-02-14 06:00:00,
2013-02-13 23:05:00,34.2,23.9,30.10,NW,315,0.4,2.2,66,0.00,,,0.00,WUHU216HW,2013-02-14 06:05:00,
2013-02-13 23:10:00,34.6,23.9,30.10,NW,315,5.1,7.8,65,0.00,,,0.00,WUHU216HW,2013-02-14 06:10:00,
2013-02-13 23:15:00,34.6,24.3,30.10,WNW,293,1.1,7.8,66,0.00,,,0.00,WUHU216HW,2013-02-14 06:15:00,
2013-02-13 23:20:00,34.6,23.9,30.10,NNW,338,1.8,5.4,65,0.00,,,0.00,WUHU216HW,2013-02-14 06:20:00,
2013-02-13 23:25:00,34.7,24.1,30.10,West,270,4.7,4.7,65,0.00,,,0.00,WUHU216HW,2013-02-14 06:25:00,
2013-02-13 23:31:00,34.9,23.9,30.10,WNW,293,4.0,4.9,64,0.00,,,0.00,WUHU216HW,2013-02-14 06:31:00,
2013-02-13 23:36:00,35.1,24.1,30.10,WNW,293,2.7,4.9,64,0.00,,,0.00,WUHU216HW,2013-02-14 06:36:00,
2013-02-13 23:41:00,35.1,24.1,30.10,WSW,248,6.3,6.3,64,0.00,,,0.00,WUHU216HW,2013-02-14 06:41:00,
2013-02-13 23:46:00,35.3,24.3,30.10,West,270,3.6,6.7,64,0.00,,,0.00,WUHU216HW,2013-02-14 06:46:00,
2013-02-13 23:51:00,35.3,24.3,30.10,WSW,248,8.9,8.9,64,0.00,,,0.00,WUHU216HW,2013-02-14 06:51:00,
2013-02-13 23:56:00,35.5,24.1,30.11,WSW,248,7.2,12.1,63,0.00,,,0.00,WUHU216HW,2013-02-14 06:56:00,